OBJECT H, 63989

Orbit data source: Space-Track

You're viewing an Uncataloged Satellite

Recently launched and/or uncataloged satellites may have evolving metadata. Metadata may include but not limited to: Owner, Maufacturer, Bus, Motor, and Mission.

OBJECT H, 63989 is a Chinese satellite in SSO that was launched on Wed, 14 May 2025 UTC via a CHANG ZHENG 2D launch vehicle from the Jiuquan Satellite Launch Center, China (JSC). Unknown objects in Earth's orbit typically refer to objects detected orbiting the Earth but have not yet been identified or cataloged. These objects could be anything from previously untracked satellites, spent rocket stages, debris from satellite collisions, or even natural meteoroids temporarily captured by Earth's gravity.

Loading next visibility...
Identifier
63989, 2025-100H
Orbit
SSO
Country
Flag of CNCN / PRC
Related business
None
Manufacturer
Unknown
Mission
Operational Commercial Technology
Bus & Motor
Unknown
Mass
Unknown
Launch date (UTC)
2025-05-14 (1 year ago)
Launch vehicle
CHANG ZHENG 2D
Launch site
Jiuquan Satellite Launch Center, China (JSC)
Object type
Unknown
Shape & HBR
Box + 2 Pan, 0.9 m
Radar Cross Section
0.135 m², Medium (>0.1 m² and < 1m²)

Expand to show TLE details & history
Last TLE update: 8 hours ago

TLE from 8 hours ago
0 OBJECT H
1 63989U 25100H   26130.17382994  .00019819  00000-0  61073-3 0  9996
2 63989  97.3687 206.7232 0009827  69.3787 290.8509 15.33602137 55032
Epoch: 2026-05-10T04:10Z
TLE epoch observation values (Epoch: 2026-05-10T04:10:18.906Z)
Latitude
-0.00001°
Longitude
-83.83628°
Altitude
465.797 km
Speed
7.635 km/s
True Right ascension
13h 46m 53s
True Declination
0° 00' 00"
Sunlit
Object was in full shadow at epoch
Visualization orbit readout
Latitude
Unknown
Longitude
Unknown
Altitude
Unknown
Speed
Unknown
Apparent Right ascension
Unknown
Apparent Declination
Unknown
Sunlit
N/A
Visualization observer readout
Local Sidereal Time
19:53:44
Azimuth
Unknown
Elevation
Unknown
Doppler factor
Unknown
Orbital elements
Apogee altitude
468.744 km
Perigee altitude
455.3 km
Semi-major axis
6,840.159 km
Eccentricity
0.00098
Inclination
97.3687°
RAAN
206.7232°
Arg. of periapsis
69.3787°
True anomaly
290.74562°
Mean anomaly
290.8509°
Eccentric anomaly
290.79826°
Mean motion
3.83658 °/min
Orbital period
93.83 mins
BSTAR
0.00061073
Loading maneuver chart data...
Computing Atmospheric mass density...
Loading historical data...
Loading historical data...
Loading historical data...
Loading historical data...
Loading historical data...
Loading historical data...
Loading historical data...

Documentation

Showing up to 5 results
|